TimeCST,TemperatureF,Dew PointF,Humidity,Sea Level PressureIn,VisibilityMPH,Wind Direction,Wind SpeedMPH,Gust SpeedMPH,PrecipitationIn,Events,Conditions,WindDirDegrees,DateUTC
12:53 AM,34.0,25.0,70,30.25,10.0,North,3.5,-,N/A,,Clear,360,2012-12-12 06:53:00
1:53 AM,32.0,26.1,79,30.24,10.0,Calm,Calm,-,N/A,,Clear,0,2012-12-12 07:53:00
2:53 AM,30.0,24.1,79,30.24,10.0,NNE,3.5,-,N/A,,Clear,20,2012-12-12 08:53:00
3:53 AM,28.9,23.0,78,30.25,10.0,Calm,Calm,-,N/A,,Clear,0,2012-12-12 09:53:00
4:53 AM,28.9,24.1,82,30.26,10.0,Calm,Calm,-,N/A,,Clear,0,2012-12-12 10:53:00
5:53 AM,28.0,23.0,81,30.29,10.0,Calm,Calm,-,N/A,,Clear,0,2012-12-12 11:53:00
6:53 AM,27.0,23.0,85,30.31,10.0,Calm,Calm,-,N/A,,Clear,0,2012-12-12 12:53:00
7:53 AM,30.0,25.0,82,30.34,10.0,Calm,Calm,-,N/A,,Clear,0,2012-12-12 13:53:00
8:53 AM,39.9,30.9,70,30.36,10.0,East,4.6,-,N/A,,Clear,90,2012-12-12 14:53:00
9:53 AM,46.0,30.0,54,30.37,10.0,East,5.8,-,N/A,,Clear,90,2012-12-12 15:53:00
10:53 AM,50.0,23.0,35,30.36,10.0,East,8.1,-,N/A,,Clear,80,2012-12-12 16:53:00
11:53 AM,53.1,19.9,27,30.34,10.0,Calm,Calm,-,N/A,,Clear,0,2012-12-12 17:53:00
12:53 PM,55.0,14.0,20,30.31,10.0,East,5.8,-,N/A,,Clear,100,2012-12-12 18:53:00
1:53 PM,57.0,10.0,15,30.28,10.0,East,8.1,-,N/A,,Clear,100,2012-12-12 19:53:00
2:53 PM,57.9,12.0,16,30.28,10.0,Variable,5.8,-,N/A,,Clear,0,2012-12-12 20:53:00
3:53 PM,57.0,10.0,15,30.27,10.0,Calm,Calm,-,N/A,,Clear,0,2012-12-12 21:53:00
4:53 PM,54.0,16.0,22,30.27,10.0,East,3.5,-,N/A,,Clear,80,2012-12-12 22:53:00
5:53 PM,46.9,18.0,32,30.27,10.0,Calm,Calm,-,N/A,,Clear,0,2012-12-12 23:53:00
6:53 PM,39.0,28.9,67,30.28,10.0,Calm,Calm,-,N/A,,Clear,0,2012-12-13 00:53:00
7:53 PM,36.0,28.0,73,30.30,10.0,East,3.5,-,N/A,,Clear,80,2012-12-13 01:53:00
8:53 PM,34.0,27.0,75,30.31,10.0,East,3.5,-,N/A,,Clear,90,2012-12-13 02:53:00
9:53 PM,36.0,25.0,64,30.32,10.0,Calm,Calm,-,N/A,,Clear,0,2012-12-13 03:53:00
10:53 PM,34.0,26.1,73,30.32,10.0,Calm,Calm,-,N/A,,Clear,0,2012-12-13 04:53:00
11:53 PM,33.1,26.1,75,30.32,10.0,Calm,Calm,-,N/A,,Clear,0,2012-12-13 05:53:00